BREEZE-M DEB (TANK), 41312

Orbit data source: Space-Track

BREEZE-M DEB (TANK), 41312 is space debris in HEO originally from a launch on Fri, 29 Jan 2016 UTC launched from the Tyuratam Missile And Space Complex (TTMTR). Debris objects in space refer to the collection of defunct objects orbiting the Earth. Examples of debris include non-operational satellites, rocket bodies, and fragments generated from explosions, collisions, or faulty payload assembly.

Loading next visibility...
Identifier
41312, 2016-005C
Orbit
HEO
Country
Flag of CISCIS
Related business
Manufacturer
Khrunichev
Mission
Spacecraft
Bus & Motor
BRIZ TANK, Unknown motor
Mass
~1,000 kg wet, 1,000 kg dry
Launch date (UTC)
2016-01-29 (10 years ago)
Launch vehicle
Unknown
Launch site
Tyuratam Missile And Space Complex (TTMTR)
Object type
Payload
Rocket body
Debris
Shape & HBR
Torus, 2.0 m
Radar Cross Section
8.218 m², Large (>1 m²)

Expand to show TLE details & history
Last TLE update: 3 days ago

TLE from 3 days ago
0 BREEZE-M DEB (TANK)
1 41312U 16005C   26170.15940646  .00003993  00000-0  12213-2 0  9999
2 41312  49.4212  79.5257 5782883  74.6157 339.5789  4.34312505159748
Epoch: 2026-06-19T03:49Z
TLE epoch observation values (Epoch: 2026-06-19T03:49:32.718Z)
Latitude
0.00002°
Longitude
114.76388°
Altitude
2,769.285 km
Speed
7.877 km/s
True Right ascension
05h 18m 10s
True Declination
0° 00' 00"
Sunlit
Object was in daylight at epoch
Visualization orbit readout
Latitude
Unknown
Longitude
Unknown
Altitude
Unknown
Speed
Unknown
Apparent Right ascension
Unknown
Apparent Declination
Unknown
Sunlit
N/A
Visualization observer readout
Local Sidereal Time
21:35:24
Azimuth
Unknown
Elevation
Unknown
Doppler factor
Unknown
Orbital elements
Apogee altitude
18,667.903 km
Perigee altitude
314.055 km
Semi-major axis
15,869.116 km
Eccentricity
0.57829
Inclination
49.4212°
RAAN
79.5257°
Arg. of periapsis
74.6157°
True anomaly
285.33738°
Mean anomaly
339.5789°
Eccentric anomaly
316.96868°
Mean motion
1.08571 °/min
Orbital period
331.58 mins
BSTAR
0.0012213
Loading maneuver chart data...
Computing Atmospheric mass density...
Loading historical data...
Loading historical data...
Loading historical data...
Loading historical data...
Loading historical data...
Loading historical data...
Loading historical data...
Other satellites on launch #5 in the year 2016 (2016-01-29 UTC)

Documentation

Showing up to 5 results
|